Time,TemperatureF,DewpointF,PressureIn,WindDirection,WindDirectionDegrees,WindSpeedMPH,WindSpeedGustMPH,Humidity,HourlyPrecipIn,Conditions,Clouds,dailyrainin,SoftwareType,DateUTC
2013-10-08 00:04:00,62.4,59.0,30.01,ENE,74,0.0,-999.0,89,-99.99,,,0.00,weatherlink.com 1.10,2013-10-08 04:04:00,
2013-10-08 00:38:00,62.4,59.0,30.00,ENE,74,0.0,-999.0,88,-99.99,,,0.00,weatherlink.com 1.10,2013-10-08 04:38:00,
2013-10-08 00:49:00,62.4,57.0,30.00,South,171,1.0,-999.0,82,-99.99,,,0.00,weatherlink.com 1.10,2013-10-08 04:49:00,
2013-10-08 01:05:00,62.3,56.0,30.00,South,171,0.0,-999.0,80,-99.99,,,0.00,weatherlink.com 1.10,2013-10-08 05:05:00,
2013-10-08 01:38:00,62.3,56.0,30.00,SE,144,0.0,-999.0,80,-99.99,,,0.00,weatherlink.com 1.10,2013-10-08 05:38:00,
2013-10-08 01:49:00,61.9,56.0,30.00,SE,138,0.0,-999.0,82,-99.99,,,0.00,weatherlink.com 1.10,2013-10-08 05:49:00,
2013-10-08 02:04:00,61.8,57.0,30.01,SSW,202,0.0,-999.0,83,-99.99,,,0.00,weatherlink.com 1.10,2013-10-08 06:04:00,
2013-10-08 02:38:00,61.8,57.0,30.02,SSW,202,0.0,-999.0,84,-99.99,,,0.00,weatherlink.com 1.10,2013-10-08 06:38:00,
2013-10-08 02:49:00,61.8,57.0,30.04,SSW,212,0.0,-999.0,84,-99.99,,,0.00,weatherlink.com 1.10,2013-10-08 06:49:00,
2013-10-08 03:04:00,61.7,57.0,30.04,SSW,206,0.0,-999.0,83,-99.99,,,0.00,weatherlink.com 1.10,2013-10-08 07:04:00,
2013-10-08 03:36:00,61.6,56.0,30.05,SSW,206,0.0,-999.0,83,-99.99,,,0.00,weatherlink.com 1.10,2013-10-08 07:36:00,
2013-10-08 03:49:00,61.4,57.0,30.05,SSW,193,0.0,-999.0,84,-99.99,,,0.00,weatherlink.com 1.10,2013-10-08 07:49:00,
2013-10-08 04:04:00,61.2,56.0,30.05,SSW,193,0.0,-999.0,82,-99.99,,,0.00,weatherlink.com 1.10,2013-10-08 08:04:00,
2013-10-08 04:38:00,61.1,55.0,30.05,SSW,195,0.0,-999.0,80,-99.99,,,0.00,weatherlink.com 1.10,2013-10-08 08:38:00,
2013-10-08 04:49:00,60.5,53.0,30.06,South,177,0.0,-999.0,75,-99.99,,,0.00,weatherlink.com 1.10,2013-10-08 08:49:00,
2013-10-08 05:04:00,60.3,52.0,30.07,South,179,0.0,-999.0,75,-99.99,,,0.00,weatherlink.com 1.10,2013-10-08 09:04:00,
2013-10-08 05:38:00,60.1,53.0,30.07,South,179,0.0,-999.0,76,-99.99,,,0.00,weatherlink.com 1.10,2013-10-08 09:38:00,
2013-10-08 05:49:00,59.7,52.0,30.09,South,178,0.0,-999.0,77,-99.99,,,0.00,weatherlink.com 1.10,2013-10-08 09:49:00,
2013-10-08 06:04:00,59.6,53.0,30.09,South,178,0.0,-999.0,78,-99.99,,,0.00,weatherlink.com 1.10,2013-10-08 10:04:00,
2013-10-08 06:38:00,59.5,53.0,30.10,South,178,0.0,-999.0,78,-99.99,,,0.00,weatherlink.com 1.10,2013-10-08 10:38:00,
2013-10-08 06:49:00,59.2,51.0,30.11,SSW,202,0.0,-999.0,73,-99.99,,,0.00,weatherlink.com 1.10,2013-10-08 10:49:00,
2013-10-08 07:04:00,59.2,50.0,30.12,SSW,197,0.0,-999.0,72,-99.99,,,0.00,weatherlink.com 1.10,2013-10-08 11:04:00,
2013-10-08 07:38:00,59.1,50.0,30.12,SSW,196,0.0,-999.0,73,-99.99,,,0.00,weatherlink.com 1.10,2013-10-08 11:38:00,
2013-10-08 07:49:00,59.1,50.0,30.13,SW,230,0.0,-999.0,71,-99.99,,,0.00,weatherlink.com 1.10,2013-10-08 11:49:00,
2013-10-08 08:04:00,59.1,50.0,30.13,SW,230,0.0,-999.0,71,-99.99,,,0.00,weatherlink.com 1.10,2013-10-08 12:04:00,
2013-10-08 08:38:00,59.0,49.0,30.14,South,184,0.0,-999.0,70,-99.99,,,0.00,weatherlink.com 1.10,2013-10-08 12:38:00,
2013-10-08 08:49:00,58.9,49.0,30.15,SSE,158,0.0,-999.0,69,-99.99,,,0.00,weatherlink.com 1.10,2013-10-08 12:49:00,
2013-10-08 09:38:00,58.9,49.0,30.17,East,92,0.0,-999.0,70,-99.99,,,0.00,weatherlink.com 1.10,2013-10-08 13:38:00,
2013-10-08 09:49:00,58.9,49.0,30.18,ENE,73,0.0,-999.0,70,-99.99,,,0.00,weatherlink.com 1.10,2013-10-08 13:49:00,
2013-10-08 10:04:00,58.9,49.0,30.18,SSW,203,0.0,-999.0,70,-99.99,,,0.00,weatherlink.com 1.10,2013-10-08 14:04:00,
2013-10-08 10:38:00,58.8,49.0,30.18,SSW,203,0.0,-999.0,70,-99.99,,,0.00,weatherlink.com 1.10,2013-10-08 14:38:00,
2013-10-08 10:49:00,58.9,49.0,30.19,SW,236,0.0,-999.0,70,-99.99,,,0.00,weatherlink.com 1.10,2013-10-08 14:49:00,
2013-10-08 11:04:00,59.0,50.0,30.19,West,268,0.0,-999.0,73,-99.99,,,0.00,weatherlink.com 1.10,2013-10-08 15:04:00,
2013-10-08 11:38:00,59.1,50.0,30.18,South,190,0.0,-999.0,71,-99.99,,,0.00,weatherlink.com 1.10,2013-10-08 15:38:00,
2013-10-08 11:49:00,59.4,50.0,30.19,SSE,148,0.0,-999.0,72,-99.99,,,0.00,weatherlink.com 1.10,2013-10-08 15:49:00,
2013-10-08 12:04:00,59.6,51.0,30.19,South,173,0.0,-999.0,73,-99.99,,,0.00,weatherlink.com 1.10,2013-10-08 16:04:00,
2013-10-08 12:38:00,59.7,51.0,30.19,SW,217,0.0,-999.0,72,-99.99,,,0.00,weatherlink.com 1.10,2013-10-08 16:38:00,
2013-10-08 12:49:00,60.5,51.0,30.18,East,82,0.0,-999.0,72,-99.99,,,0.00,weatherlink.com 1.10,2013-10-08 16:49:00,
2013-10-08 13:04:00,60.8,51.0,30.18,SSW,192,0.0,-999.0,71,-99.99,,,0.00,weatherlink.com 1.10,2013-10-08 17:04:00,
2013-10-08 13:38:00,60.9,51.0,30.18,South,180,0.0,-999.0,71,-99.99,,,0.00,weatherlink.com 1.10,2013-10-08 17:38:00,
2013-10-08 13:49:00,61.5,52.0,30.17,SSW,207,0.0,-999.0,70,-99.99,,,0.00,weatherlink.com 1.10,2013-10-08 17:49:00,
2013-10-08 14:04:00,61.9,51.0,30.16,SSW,211,0.0,-999.0,68,-99.99,,,0.00,weatherlink.com 1.10,2013-10-08 18:04:00,
2013-10-08 14:38:00,61.9,51.0,30.16,SW,221,1.0,-999.0,68,-99.99,,,0.00,weatherlink.com 1.10,2013-10-08 18:38:00,
2013-10-08 14:49:00,61.9,52.0,30.16,South,173,0.0,-999.0,69,-99.99,,,0.00,weatherlink.com 1.10,2013-10-08 18:49:00,
2013-10-08 15:04:00,62.0,52.0,30.16,South,173,0.0,-999.0,69,-99.99,,,0.00,weatherlink.com 1.10,2013-10-08 19:04:00,
2013-10-08 15:38:00,62.1,52.0,30.16,South,186,0.0,-999.0,69,-99.99,,,0.00,weatherlink.com 1.10,2013-10-08 19:38:00,
2013-10-08 15:49:00,61.9,52.0,30.16,South,176,0.0,-999.0,69,-99.99,,,0.00,weatherlink.com 1.10,2013-10-08 19:49:00,
2013-10-08 16:04:00,61.8,52.0,30.16,South,176,0.0,-999.0,71,-99.99,,,0.00,weatherlink.com 1.10,2013-10-08 20:04:00,
2013-10-08 16:38:00,61.8,52.0,30.17,East,95,0.0,-999.0,71,-99.99,,,0.00,weatherlink.com 1.10,2013-10-08 20:38:00,
2013-10-08 16:48:00,61.5,52.0,30.17,South,182,1.0,-999.0,72,-99.99,,,0.00,weatherlink.com 1.10,2013-10-08 20:48:00,
2013-10-08 17:03:00,61.4,52.0,30.18,South,188,0.0,-999.0,72,-99.99,,,0.00,weatherlink.com 1.10,2013-10-08 21:03:00,
2013-10-08 17:38:00,61.4,52.0,30.17,South,188,0.0,-999.0,71,-99.99,,,0.00,weatherlink.com 1.10,2013-10-08 21:38:00,
2013-10-08 17:49:00,61.0,52.0,30.18,SE,138,0.0,-999.0,72,-99.99,,,0.00,weatherlink.com 1.10,2013-10-08 21:49:00,
2013-10-08 18:04:00,60.8,52.0,30.18,WSW,242,0.0,-999.0,72,-99.99,,,0.00,weatherlink.com 1.10,2013-10-08 22:04:00,
2013-10-08 18:38:00,60.7,52.0,30.18,WSW,242,0.0,-999.0,73,-99.99,,,0.00,weatherlink.com 1.10,2013-10-08 22:38:00,
2013-10-08 18:49:00,60.1,52.0,30.19,WSW,249,0.0,-999.0,74,-99.99,,,0.00,weatherlink.com 1.10,2013-10-08 22:49:00,
2013-10-08 19:04:00,60.0,52.0,30.19,WSW,249,0.0,-999.0,74,-99.99,,,0.00,weatherlink.com 1.10,2013-10-08 23:04:00,
2013-10-08 19:38:00,59.9,52.0,30.19,WSW,249,0.0,-999.0,74,-99.99,,,0.00,weatherlink.com 1.10,2013-10-08 23:38:00,
2013-10-08 19:49:00,59.6,52.0,30.20,WSW,250,0.0,-999.0,75,-99.99,,,0.00,weatherlink.com 1.10,2013-10-08 23:49:00,
2013-10-08 20:04:00,59.5,52.0,30.20,SW,225,0.0,-999.0,76,-99.99,,,0.00,weatherlink.com 1.10,2013-10-09 00:04:00,
2013-10-08 20:38:00,59.4,52.0,30.20,SW,225,0.0,-999.0,76,-99.99,,,0.00,weatherlink.com 1.10,2013-10-09 00:38:00,
2013-10-08 20:49:00,59.3,52.0,30.20,SW,225,0.0,-999.0,76,-99.99,,,0.00,weatherlink.com 1.10,2013-10-09 00:49:00,
2013-10-08 21:04:00,59.3,51.0,30.20,SW,224,0.0,-999.0,75,-99.99,,,0.00,weatherlink.com 1.10,2013-10-09 01:04:00,
2013-10-08 21:38:00,59.3,52.0,30.20,SW,224,0.0,-999.0,76,-99.99,,,0.00,weatherlink.com 1.10,2013-10-09 01:38:00,
2013-10-08 21:49:00,59.1,52.0,30.21,East,94,0.0,-999.0,78,-99.99,,,0.00,weatherlink.com 1.10,2013-10-09 01:49:00,
2013-10-08 22:04:00,58.2,53.0,30.21,East,94,0.0,-999.0,83,-99.99,,,0.00,weatherlink.com 1.10,2013-10-09 02:04:00,
2013-10-08 22:37:00,57.5,53.0,30.21,East,94,0.0,-999.0,86,-99.99,,,0.00,weatherlink.com 1.10,2013-10-09 02:37:00,
2013-10-08 22:49:00,56.3,53.0,30.21,East,94,0.0,-999.0,89,-99.99,,,0.00,weatherlink.com 1.10,2013-10-09 02:49:00,
2013-10-08 23:04:00,56.3,52.0,30.21,East,94,0.0,-999.0,86,-99.99,,,0.00,weatherlink.com 1.10,2013-10-09 03:04:00,
2013-10-08 23:37:00,56.4,52.0,30.21,East,94,0.0,-999.0,86,-99.99,,,0.00,weatherlink.com 1.10,2013-10-09 03:37:00,
2013-10-08 23:48:00,57.2,52.0,30.20,East,84,0.0,-999.0,82,-99.99,,,0.00,weatherlink.com 1.10,2013-10-09 03:48:00,